| time (UTC) | temp F | wind direction | speed knots | gust knots | rain 1hr in | rain 24hr in | rain mn in | humidity % | barometer mb |
| 20260504050025 | 48 | 251 | 0.0 | 0.0 | 0.00 | 0.00 | 0.00 | 67 | 1015.7 |
| 20260504044525 | 48 | 251 | 0.0 | 2.6 | 0.00 | 0.00 | 0.00 | 66 | 1015.7 |
| 20260504043033 | 47 | 278 | 1.7 | 6.1 | 0.00 | 0.00 | 0.00 | 67 | 1015.7 |
| 20260504041522 | 46 | 229 | 0.0 | 3.5 | 0.00 | 0.00 | 0.00 | 69 | 1015.7 |
| 20260504040023 | 47 | 316 | 0.0 | 1.7 | 0.00 | 0.00 | 0.00 | 69 | 1015.5 |
| 20260504034516 | 47 | 316 | 0.0 | 0.0 | 0.00 | 0.00 | 0.00 | 67 | 1015.4 |
| 20260504033015 | 48 | 316 | 0.9 | 2.6 | 0.00 | 0.00 | 0.00 | 66 | 1015.2 |
| 20260504031514 | 48 | 255 | 0.9 | 1.7 | 0.00 | 0.00 | 0.00 | 63 | 1015.2 |
| 20260504030016 | 49 | 249 | 0.0 | 0.9 | 0.00 | 0.00 | 0.00 | 62 | 1015.1 |
| 20260504024515 | 49 | 248 | 0.0 | 2.6 | 0.00 | 0.00 | 0.00 | 59 | 1015.2 |
| 20260504023016 | 50 | 260 | 0.0 | 1.7 | 0.00 | 0.00 | 0.00 | 58 | 1015.0 |
| 20260504021514 | 50 | 230 | 0.0 | 1.7 | 0.00 | 0.00 | 0.00 | 55 | 1015.1 |
| 20260504020011 | 51 | 230 | 0.0 | 0.9 | 0.00 | 0.00 | 0.00 | 53 | 1015.1 |
| 20260504014511 | 51 | 230 | 0.9 | 3.5 | 0.00 | 0.00 | 0.00 | 50 | 1015.0 |
| 20260504013012 | 52 | 234 | 0.9 | 5.2 | 0.00 | 0.00 | 0.00 | 48 | 1015.0 |
| 20260504011518 | 53 | 269 | 0.0 | 1.7 | 0.00 | 0.00 | 0.00 | 48 | 1014.7 |
| 20260504010009 | 54 | 280 | 0.0 | 0.0 | 0.00 | 0.00 | 0.00 | 47 | 1014.6 |
| 20260504004509 | 56 | 280 | 0.0 | 0.0 | 0.00 | 0.00 | 0.00 | 45 | 1014.5 |
| 20260504003008 | 57 | 280 | 0.0 | 0.9 | 0.00 | 0.00 | 0.00 | 42 | 1014.4 |
| 20260504001507 | 58 | 280 | 0.0 | 1.7 | 0.00 | 0.00 | 0.00 | 41 | 1014.2 |
| 20260504000007 | 59 | 329 | 0.0 | 3.5 | 0.00 | 0.00 | 0.00 | 38 | 1014.2 |
| 20260503234506 | 60 | 305 | 1.7 | 6.1 | 0.00 | 0.00 | 0.00 | 35 | 1013.9 |
| 20260503233005 | 61 | 343 | 1.7 | 7.0 | 0.00 | 0.00 | 0.00 | 34 | 1013.7 |
| 20260503231505 | 61 | 355 | 1.7 | 12.2 | 0.00 | 0.00 | 0.00 | 33 | 1013.7 |
| 20260503230004 | 61 | 302 | 3.5 | 9.6 | 0.00 | 0.00 | 0.00 | 33 | 1013.7 |
| 20260503224504 | 61 | 336 | 5.2 | 13.9 | 0.00 | 0.00 | 0.00 | 32 | 1013.9 |
| 20260503223002 | 62 | 333 | 4.3 | 9.6 | 0.00 | 0.00 | 0.00 | 32 | 1013.7 |
| 20260503221501 | 62 | 331 | 5.2 | 14.8 | 0.00 | 0.00 | 0.00 | 32 | 1013.8 |
| 20260503220001 | 62 | 286 | 3.5 | 9.6 | 0.00 | 0.00 | 0.00 | 32 | 1013.8 |
| 20260503214600 | 62 | 267 | 7.0 | 17.4 | 0.00 | 0.00 | 0.00 | 32 | 1013.6 |
| 20260503213100 | 61 | 328 | 3.5 | 15.6 | 0.00 | 0.00 | 0.00 | 32 | 1013.8 |
| 20260503211557 | 61 | 19 | 2.6 | 9.6 | 0.00 | 0.00 | 0.00 | 32 | 1013.7 |
| 20260503210058 | 61 | 351 | 7.0 | 14.8 | 0.00 | 0.00 | 0.00 | 31 | 1013.8 |
| 20260503204603 | 61 | 333 | 9.6 | 16.5 | 0.00 | 0.00 | 0.00 | 31 | 1013.7 |
| 20260503203057 | 61 | 309 | 7.0 | 14.8 | 0.00 | 0.00 | 0.00 | 33 | 1014.0 |
| 20260503201553 | 60 | 234 | 7.8 | 15.6 | 0.00 | 0.00 | 0.00 | 32 | 1014.1 |
| 20260503200051 | 60 | 236 | 7.0 | 13.9 | 0.00 | 0.00 | 0.00 | 33 | 1014.3 |
| 20260503194550 | 60 | 313 | 6.1 | 15.6 | 0.00 | 0.00 | 0.00 | 34 | 1014.5 |
| 20260503194521 | 60 | 328 | 7.0 | 15.6 | 0.00 | 0.00 | 0.00 | 34 | 1014.5 |
| 20260503193049 | 60 | 319 | 4.3 | 10.4 | 0.00 | 0.00 | 0.00 | 36 | 1014.7 |
| 20260503191548 | 60 | 279 | 8.7 | 15.6 | 0.00 | 0.00 | 0.00 | 35 | 1014.8 |
| 20260503190046 | 59 | 315 | 5.2 | 20.9 | 0.00 | 0.00 | 0.00 | 37 | 1014.9 |
| 20260503184550 | 59 | 295 | 7.0 | 15.6 | 0.00 | 0.00 | 0.00 | 37 | 1015.0 |
| 20260503183044 | 58 | 335 | 5.2 | 12.2 | 0.00 | 0.00 | 0.00 | 36 | 1015.4 |
| 20260503181541 | 57 | 322 | 5.2 | 16.5 | 0.00 | 0.00 | 0.00 | 37 | 1015.4 |
| 20260503180046 | 56 | 355 | 10.4 | 15.6 | 0.00 | 0.00 | 0.00 | 36 | 1015.4 |
| 20260503174542 | 57 | 333 | 6.1 | 13.0 | 0.00 | 0.00 | 0.00 | 37 | 1015.6 |
| 20260503173046 | 56 | 351 | 8.7 | 19.1 | 0.00 | 0.00 | 0.00 | 37 | 1015.6 |
| 20260503171534 | 56 | 335 | 10.4 | 17.4 | 0.00 | 0.00 | 0.00 | 38 | 1015.8 |
| 20260503081512 | 43 | 299 | 5.2 | 9.6 | 0.00 | 0.00 | 0.00 | 68 | 1013.7 |
| 20260503071602 | 44 | 333 | 3.5 | 10.4 | 0.00 | 0.00 | 0.00 | 66 | 1013.1 |
| 20260503060108 | 45 | 323 | 3.5 | 9.6 | 0.00 | 0.00 | 0.00 | 65 | 1013.1 |
| 20260503054546 | 46 | 309 | 3.5 | 7.8 | 0.00 | 0.00 | 0.00 | 65 | 1013.2 |